Location: Tamazert
(32.6352°N, 5.2072°W)
Time: 01:12:20
(UTC+00:00)

Altair - Pass Details

Date: 06 October 2022
Orbit: 1501 x 1682 km, 47.2° (Epoch: 05 December)

Event Time Altitude Azimuth Distance (km) Brightness Sun altitude
Exits shadow 01:23:43 10° 90° (E) 3,764 9.7 -57.4°
Drops below altitude 10° 01:23:51 10° 89° (E) 3,787 9.7 -57.4°
Sets 01:28:42 0° 70° (ENE) 4,822 10.5 -56.7°
